Regional Weather Roundup
Issued by NWS

Home | Current Version | Previous Version | Text Only | Print | Product List | Glossary On
Versions: 1 2 3 4 5 6 7 8 9 10 11 12 13 14 15 16 17 18 19 20 21 22 23 24 25 26 27 28 29 30 31 32 33 34 35 36 37 38 39 40 41 42 43 44 45 46 47 48 49
000
ASUS43 KDMX 252007
RWRIA

WEATHER ROUNDUP FOR IOWA
NATIONAL WEATHER SERVICE DES MOINES IA
200 PM CST TUE NOV 25 2014

NOTE: "FAIR" INDICATES FEW OR NO CLOUDS BELOW 12,000 FEET WITH NO
SIGNIFICANT WEATHER AND/OR OBSTRUCTIONS TO VISIBILITY.

* - THESE STATIONS ARE NOT NWS STATIONS...THUS NOT UNDER NWS
QUALITY CONTROL.  THEY ALSO DO NOT REPORT WEATHER SUCH
AS PRECIPITATION OR FOG.

IAZ001>003-012>014-020>022-031>034-043>046-252100-
   NORTHWEST IOWA

CITY           SKY/WX    TMP DP  RH WIND       PRES   REMARKS
CARROLL *      SUNNY     36  14  41 S9        30.03F WCI  29
CHEROKEE *     SUNNY     36  14  41 S7        29.98F WCI  30
DENISON *      SUNNY     39  16  38 S13       29.99F WCI  32
LE MARS *      SUNNY     37  21  52 S14       29.96F WCI  29
ORANGE CITY *  SUNNY     37  18  44 S12       29.95F WCI  30
SHELDON *      MOSUNNY   36  16  44 S12       29.94F WCI  27
SIOUX CITY     MOSUNNY   41  23  48 S9        29.97F
SPENCER        MOSUNNY   35  13  40 S10       29.99F WCI  27
STORM LAKE *   SUNNY     36  14  41 S13       29.99F WCI  27
$$

IAZ055>058-069>071-079>083-090>094-252100-
   SOUTHWEST IOWA

CITY           SKY/WX    TMP DP  RH WIND       PRES   REMARKS
ATLANTIC *     SUNNY     37  14  38 S12       30.04F WCI  30
AUDUBON *      SUNNY     37   7  28 S9        30.04F WCI  31
CLARINDA *     SUNNY     39  16  38 S8        30.09F WCI  34
COUNCIL BLFS * SUNNY     39  19  45 S12       30.00F WCI  32
CRESTON *      SUNNY     36  10  35 SW8G15    30.07F WCI  29
HARLAN  *      SUNNY     37  14  38 S9        30.06F WCI  31
LAMONI         SUNNY     36   9  32 SW9       30.09F WCI  29
RED OAK *      SUNNY     39  16  38 S12       30.05F WCI  32
SHENANDOAH *   SUNNY     41  18  38 S10G16    30.06F
$$

IAZ047>049-059>061-072>074-084-252100-
   CENTRAL IOWA

CITY           SKY/WX    TMP DP  RH WIND       PRES   REMARKS
AMES           SUNNY     32  10  40 SW6       30.08F WCI  26
ANKENY *       SUNNY     34   9  35 CALM      30.09F
CHARITON *     SUNNY     34  10  37 SW9       30.09F WCI  26
DES MOINES     MOSUNNY   36   7  29 W8        30.09F WCI  30
GRINNELL*      SUNNY     30  19  64 W6        30.10F WCI  24
KNOXVILLE *    SUNNY     34   9  35 VRB6      30.09F WCI  29
MARSHALLTOWN   SUNNY     28  18  66 SW8       30.09S WCI  20
PELLA *        SUNNY     34  14  44 W8        30.11F WCI  27
PERRY *          N/A     36  10  35 SW6       30.06F WCI  31
$$

IAZ004>006-015-016-023>025-035-036-252100-
   NORTH CENTRAL IOWA

CITY           SKY/WX    TMP DP  RH WIND       PRES   REMARKS
ALGONA *       SUNNY     32   9  37 S7G14     30.03F WCI  26
CLARION *      SUNNY     32   7  34 SW8       30.05F WCI  25
ESTHERVILLE    CLOUDY    33   7  33 S12       29.99F WCI  24
FORT DODGE *   SUNNY     34   9  35 SW6       30.05F WCI  29
MASON CITY     SUNNY     26  10  50 SW3       30.06F
FOREST CITY *  MOSUNNY   30  14  51 SW8       30.04F WCI  23
IOWA FALLS *     N/A     30  14  51 SW5       30.07F WCI  25
$$

IAZ007>011-017>019-026>030-037>042-050>054-066-252100-
   NORTHEAST IOWA

CITY           SKY/WX    TMP DP  RH WIND       PRES   REMARKS
CEDAR RAPIDS   SUNNY     27  20  75 W8        30.10F WCI  19
CHARLES CITY * SUNNY     23  14  68 SW7       30.08F WCI  15
CLINTON *      SUNNY     21  16  79 W8        30.16R WCI  12
DECORAH *      SUNNY     21  12  68 VRB5      30.07R WCI  15
DUBUQUE        SUNNY     22  16  78 W10       30.08S WCI  11
MONTICELLO *   SUNNY     25  18  74 W9        30.11R WCI  15
OELWEIN *      SUNNY     21  14  73 W9        30.10S WCI  11
WATERLOO       SUNNY     22  14  71 W6        30.11S WCI  14
$$

IAZ064-065-067-068-078-252100-
   EAST CENTRAL IOWA

CITY           SKY/WX    TMP DP  RH WIND       PRES   REMARKS
DAVENPORT      SUNNY     23  15  71 W10       30.14R WCI  12
IOWA CITY      SUNNY     28  20  71 SW7       30.14S WCI  21
MT. PLEASANT * SUNNY     30  19  64 SW6       30.14S WCI  24
MUSCATINE *    SUNNY     27  18  69 SW9       30.15S WCI  17
QUAD CITIES    SUNNY     26  16  65 W6        30.14R WCI  19
$$

IAZ062-063-075>077-085>089-095>099-252100-
   SOUTHEAST IOWA

CITY           SKY/WX    TMP DP  RH WIND       PRES   REMARKS
BURLINGTON     SUNNY     28  20  71 SW5       30.13F WCI  23
FAIRFIELD *    SUNNY     30  21  69 S8        30.13S WCI  23
FORT MADISON * SUNNY     32  21  64 W3        30.13F
KEOKUK *       SUNNY     32  21  64 W6G12     30.13F WCI  26
OSKALOOSA *      N/A     32  18  55 W7        30.11F WCI  26
CENTERVILLE *  SUNNY     36  16  44 SW8       30.12F WCI  29
OTTUMWA        SUNNY     33  17  51 SW7       30.11F WCI  27
WASHINGTON *   SUNNY     28  23  80 VRB6      30.13S WCI  22
$$

ABBREVIATIONS USED IN REMARKS
   TC - TEMPERATURES IN CELSIUS
  WCI - WIND CHILL INDEX
   HX - HEAT INDEX
  VSB - VISIBILITY
$$



USA.gov is the U.S. government's official web portal to all federal, state and local government web resources and services.